This is the latest recevied weather packets stored in our database for station/object KE0FIN. If no packets are shown the sender has not sent any weather packets the latest 10 day(s).
| Time | Temp. | Humidity | Pressure | Rain* | Wind** | Luminosity | Snow |
|---|---|---|---|---|---|---|---|
| 1777682312 | 14.44° C | 56% | 1068.9 hPa | 0 mm | - | 16 W/m² | - |
| 1777682008 | 14.44° C | 55% | 1068.8 hPa | 0 mm | - | 20 W/m² | - |
| 1777681704 | 15° C | 54% | 1069 hPa | 0 mm | - | 28 W/m² | - |
| 1777681402 | 15° C | 53% | 1068.9 hPa | 0 mm | - | 29 W/m² | - |
| 1777681099 | 15.56° C | 54% | 1068.9 hPa | 0 mm | - | 43 W/m² | - |
| 1777680797 | 15.56° C | 54% | 1068.9 hPa | 0 mm | - | 43 W/m² | - |
| 1777680494 | 15.56° C | 53% | 1069.2 hPa | 0 mm | - | 54 W/m² | - |
| 1777680192 | 15° C | 53% | 1068.9 hPa | 0 mm | - | 47 W/m² | - |
| 1777679888 | 15° C | 54% | 1068.9 hPa | 0 mm | - | 50 W/m² | - |
| 1777679584 | 15° C | 53% | 1069 hPa | 0 mm | - | 34 W/m² | - |
| 1777679279 | 15° C | 53% | 1069 hPa | 0 mm | - | 37 W/m² | - |
| 1777678977 | 15° C | 54% | 1068.9 hPa | 0 mm | - | 34 W/m² | - |
| 1777678675 | 15° C | 55% | 1069 hPa | 0 mm | - | 34 W/m² | - |
| 1777678372 | 15° C | 53% | 1069.2 hPa | 0 mm | - | 35 W/m² | - |
| 1777678067 | 15° C | 53% | 1069.2 hPa | 0 mm | - | 30 W/m² | - |
| 1777677765 | 15° C | 53% | 1069.2 hPa | 0 mm | - | 24 W/m² | - |
| 1777677462 | 15° C | 53% | 1068.6 hPa | 0 mm | - | 24 W/m² | - |
| 1777677161 | 15.56° C | 53% | 1068.7 hPa | 0 mm | - | 40 W/m² | - |
| 1777676858 | 15.56° C | 53% | 1068.9 hPa | 0 mm | - | 56 W/m² | - |
| 1777676557 | 15.56° C | 53% | 1068.9 hPa | 0 mm | - | 55 W/m² | - |
| 1777676254 | 15.56° C | 52% | 1068.8 hPa | 0 mm | - | 53 W/m² | - |
| 1777675951 | 15.56° C | 52% | 1068.8 hPa | 0 mm | - | 54 W/m² | - |
| 1777675647 | 16.11° C | 51% | 1068.5 hPa | 0 mm | - | 61 W/m² | - |
| 1777675345 | 16.11° C | 50% | 1068.8 hPa | 0 mm | - | 104 W/m² | - |
| 1777675041 | 15.56° C | 50% | 1068.5 hPa | 0 mm | - | 213 W/m² | - |
* Rain latest hour (hover to see other rain measurements)
** Current wind speed in m/s (hover to see current wind gust speed)